Simultaneous Nadir Overpasses (SNOs) Predictions

Prediction of SNOs between METOP-B and NOAA-19 Satellite Orbit:

Table of predicted SNOs for the next 14.0 days since TLE Epoch: 6/19/2015
Index Date (METOP-B) Time (METOP-B) Lat,Lon (METOP-B) SZA (METOP-B ) Date (NOAA-19) Time (NOAA-19) Lat,Lon (NOAA-19) SZA (NOAA-19 ) Distance(km) Time Diff (sec)
1 06/22/2015 04:16:49 -75.20, -66.05 128.31 06/22/2015 04:15:37 -75.21, -67.47 128.26 40.30 72
2 06/22/2015 05:07:34 74.97, 100.61 51.47 06/22/2015 05:06:39 74.96, 100.52 51.47 2.82 55
3 06/22/2015 05:58:16 -74.94, -92.14 128.56 06/22/2015 05:57:34 -74.95, -92.19 128.54 2.02 42
4 06/22/2015 06:48:57 74.90, 75.08 51.41 06/22/2015 06:48:41 74.93, 75.10 51.44 3.48 16
5 06/22/2015 07:39:38 -74.92,-117.53 128.58 06/22/2015 07:39:36 -74.92,-117.61 128.57 2.26 2
6 06/22/2015 08:30:19 74.88, 49.69 51.39 06/22/2015 08:30:43 74.90, 49.68 51.41 2.34 24
7 06/22/2015 09:21:00 -74.90,-142.92 128.59 06/22/2015 09:21:38 -74.89,-143.03 128.60 3.20 38
8 06/22/2015 10:11:41 74.86, 24.29 51.37 06/22/2015 10:12:45 74.87, 24.25 51.38 1.66 64
9 06/22/2015 11:02:25 -74.74,-168.72 128.75 06/22/2015 11:03:38 -74.77,-168.18 128.73 16.11 73
10 07/02/2015 15:59:15 -75.49, 119.18 127.61 07/02/2015 15:58:08 -75.52, 116.13 127.51 85.07 67
11 07/02/2015 16:50:06 74.96, -75.05 51.89 07/02/2015 16:49:02 74.97, -74.92 51.90 3.68 64
12 07/02/2015 17:40:47 -74.99, 92.38 128.08 07/02/2015 17:39:59 -74.98, 92.29 128.08 2.76 48
13 07/02/2015 18:31:28 74.94,-100.44 51.88 07/02/2015 18:31:04 74.94,-100.35 51.87 2.80 24
14 07/02/2015 19:22:10 -74.93, 66.85 128.14 07/02/2015 19:22:01 -74.95, 66.87 128.11 3.28 9
15 07/02/2015 20:12:50 74.92,-125.84 51.86 07/02/2015 20:13:06 74.91,-125.77 51.85 2.28 16
16 07/02/2015 21:03:32 -74.91, 41.45 128.15 07/02/2015 21:04:03 -74.93, 41.44 128.13 2.22 31
17 07/02/2015 21:54:12 74.90,-151.24 51.85 07/02/2015 21:55:08 74.88,-151.20 51.82 2.39 56
18 07/02/2015 22:44:54 -74.89, 16.05 128.17 07/02/2015 22:46:05 -74.90, 16.02 128.16 1.59 71




NCC Satellite Simultaneous Nadir Overpasses (SNOs) Prediction Service
